Wind_Speed
39 37 35 36 36 33 31 32 32 33 32 29 27 24 25 25 22 21 22 29 36 45 55 64 70 74 79 81 79 78 77 76 77 77 75 75 75 76 76 78 78 68 57 57 59
41 40 36 35 34 34 30 29 29 29 30 31 32 30 26 26 30 28 28 29 30 33 36 39 44 50 57 64 70 74 76 78 78 76 75 77 80 80 79 81 82 76 66 62 63
42 41 39 36 34 33 32 29 29 31 30 29 30 30 32 30 31 33 35 35 35 36 38 41 43 45 48 49 53 59 64 69 71 73 75 75 77 80 83 86 83 84 74 68 66
42 42 41 40 37 35 34 33 30 30 30 29 26 27 27 29 30 33 37 41 42 43 45 46 49 53 54 56 56 58 60 62 65 66 68 67 69 71 78 83 88 87 83 74 70
44 44 44 43 43 41 39 37 35 32 30 29 26 25 27 29 29 30 32 35 40 45 49 53 56 58 60 62 65 64 66 66 67 69 68 67 64 65 65 73 77 81 85 83 76
35 38 45 46 46 45 43 41 39 37 36 33 31 30 28 28 29 30 33 35 35 37 41 47 53 58 62 65 67 69 70 73 75 75 75 73 69 69 73 81 77 73 73 77 81
31 31 34 40 47 48 46 44 43 42 40 39 36 34 32 32 31 30 31 32 31 33 35 41 47 53 57 63 68 72 75 78 81 81 83 79 77 79 86 86 83 77 75 73 72
33 30 32 33 36 39 46 48 46 45 44 44 42 40 38 38 37 37 36 37 38 39 40 40 43 46 51 56 61 67 75 83 86 85 87 87 87 91 90 91 89 90 82 79 77
36 36 34 29 30 35 35 38 43 48 49 47 45 44 43 43 42 43 42 43 44 45 45 45 47 49 52 57 62 68 75 80 85 83 86 88 90 98 96 95 93 96 96 89 85
33 38 39 34 31 30 32 36 38 38 43 48 50 49 48 47 47 48 47 47 48 50 49 51 52 54 55 59 63 67 73 78 82 87 87 90 91 99 100 101 102 97 99 97 94
32 36 38 38 35 35 32 33 34 37 38 39 44 47 51 51 51 51 50 51 52 54 54 55 56 59 60 61 63 64 66 69 73 74 76 79 82 93 101 105 110 108 104 100 96
35 33 36 40 40 38 37 36 36 33 33 33 37 41 45 48 51 52 53 54 54 56 54 53 57 59 59 61 63 61 60 61 67 67 69 74 76 78 83 89 102 109 113 111 105
39 38 33 37 38 39 36 42 38 36 33 32 32 35 38 41 45 49 50 52 52 51 50 52 57 58 59 59 60 52 49 50 50 55 53 59 65 71 73 74 80 95 101 108 111
43 43 40 32 39 43 41 41 42 40 35 36 32 33 34 35 37 41 43 45 46 46 44 47 53 58 60 56 51 46 44 41 39 40 42 40 53 56 58 63 70 76 88 96 104
44 47 46 40 34 39 44 41 42 43 37 35 38 34 31 32 35 36 39 43 40 37 38 44 51 59 61 57 48 41 40 38 32 33 31 30 35 41 47 53 63 69 74 82 89
43 45 46 45 39 34 40 41 40 39 39 38 34 38 36 31 32 33 33 36 40 39 35 46 52 60 62 55 53 45 39 37 34 31 28 24 25 26 34 42 51 60 67 72 78
43 43 45 47 44 37 34 42 39 41 41 40 38 34 40 36 33 31 31 32 36 41 40 47 55 61 61 56 54 49 42 38 35 32 28 23 19 20 24 32 40 49 58 67 71
44 42 41 48 47 44 38 37 41 41 44 40 39 36 33 40 36 32 31 31 33 37 41 44 55 58 58 55 57 51 43 38 33 31 27 25 18 16 18 24 31 38 47 54 62
47 43 39 46 51 47 49 37 33 40 45 41 39 39 35 36 39 34 32 31 34 35 39 42 49 56 57 53 54 51 46 38 37 31 28 23 20 15 16 20 24 29 34 41 49
49 44 39 41 50 48 49 51 45 31 39 41 40 38 38 35 38 39 33 30 34 33 38 43 47 54 57 56 55 53 46 40 35 31 27 24 18 16 14 14 19 23 26 32 39
51 47 40 40 46 51 46 53 53 47 42 44 42 41 39 38 34 40 33 29 32 32 32 42 47 50 53 55 57 55 48 43 38 34 28 23 21 14 12 10 13 18 21 26 33
56 49 40 39 43 50 50 50 52 53 48 45 48 45 43 41 34 36 39 28 29 32 28 37 46 48 50 52 52 50 44 42 39 36 31 25 19 15 11 7 8 13 17 19 26
68 50 42 39 43 49 52 53 49 53 53 49 49 48 44 41 34 33 36 34 26 30 27 30 36 40 43 46 47 46 40 39 39 36 33 29 23 18 13 5 6 9 10 17 23
80 54 47 41 43 49 52 56 56 55 57 54 52 49 46 45 34 33 32 35 30 28 28 27 34 38 39 39 43 44 40 40 39 38 34 29 24 18 13 8 3 6 8 15 24
97 60 50 43 44 45 47 51 56 55 54 55 53 55 52 53 41 34 30 30 33 26 27 24 31 35 36 34 35 38 37 38 40 40 36 31 25 18 14 9 2 4 10 15 22
97 69 50 49 45 44 46 51 55 55 55 57 56 56 52 50 40 38 32 27 35 33 27 25 25 31 33 31 30 32 34 36 40 43 40 35 30 21 15 11 6 6 11 15 18
99 74 53 46 48 48 49 50 57 56 55 57 56 54 46 44 39 37 34 34 31 35 33 26 24 27 29 30 25 26 30 34 37 41 44 41 35 27 19 17 13 11 13 15 19
Wind_Direction
284 285 288 292 294 296 296 293 296 296 296 298 298 297 298 295 286 275 263 253 253 253 254 255 254 255 255 254 255 256 258 256 255 254 254 252 248 250 250 251 252 249 245 250 253
279 282 283 284 287 290 293 294 292 294 298 293 293 291 292 290 282 276 271 267 263 260 259 260 259 259 257 257 256 256 257 257 256 256 253 251 251 250 251 251 253 251 245 244 252
277 279 278 280 282 286 290 290 292 290 293 292 291 289 287 285 281 276 272 270 269 269 269 268 267 266 263 258 257 255 253 254 254 254 253 251 249 249 249 251 251 252 247 243 244
278 277 276 276 277 279 283 287 286 289 292 292 290 290 290 284 280 278 274 271 269 267 266 265 266 266 265 264 261 257 255 253 251 250 250 248 248 247 248 248 249 249 249 242 239
276 276 278 275 276 276 277 279 283 286 287 288 290 291 290 287 281 279 281 280 276 275 273 271 270 267 265 265 265 263 262 259 255 252 251 250 247 246 248 249 247 245 245 243 238
285 282 274 273 276 278 277 277 279 280 281 283 284 287 288 289 287 284 282 281 279 279 280 277 273 270 269 267 267 265 262 262 260 258 255 249 245 248 250 250 247 245 244 242 240
310 298 291 283 275 273 275 277 278 278 279 280 280 280 282 282 284 284 285 285 282 282 288 287 281 276 273 269 266 264 263 261 260 258 258 256 247 243 243 248 250 245 244 244 240
309 320 302 296 291 287 277 274 276 277 277 278 278 278 278 280 281 280 280 283 284 284 284 290 292 284 276 273 270 268 265 263 261 258 256 255 251 250 244 243 245 250 244 241 242
310 310 314 306 299 293 290 284 279 275 274 274 276 277 277 279 279 281 283 284 285 285 287 289 290 292 283 276 274 272 270 269 268 265 260 258 252 253 252 248 242 242 244 241 240
299 308 310 315 307 301 297 291 288 285 280 275 273 274 276 277 279 280 283 285 288 289 291 292 292 293 292 288 282 280 276 272 269 268 264 260 253 252 252 250 249 245 243 239 237
286 297 303 310 315 311 310 303 298 289 289 286 280 278 277 278 278 280 283 286 289 291 293 296 298 300 298 299 294 290 286 280 274 270 267 262 255 250 248 247 246 245 244 241 234
276 282 295 303 304 310 310 314 307 300 297 298 292 284 280 278 279 280 283 286 290 293 296 300 302 303 307 309 304 300 290 283 278 274 269 265 260 254 250 244 242 243 243 243 240
278 270 272 288 295 302 306 312 313 312 305 298 301 295 290 287 284 284 287 291 295 298 303 304 305 310 318 316 308 302 296 292 284 277 266 262 257 253 250 247 242 239 238 238 239
283 273 266 270 286 294 295 303 307 312 315 308 303 307 300 295 294 294 295 297 300 303 304 307 314 320 326 324 317 311 309 307 294 282 276 265 258 264 259 250 243 239 237 234 235
290 276 267 260 271 285 290 296 300 306 311 315 315 308 308 304 296 297 300 301 304 303 307 316 324 328 332 331 330 323 321 318 315 301 289 275 260 257 252 242 239 237 237 235 232
300 282 267 264 259 265 281 291 297 301 306 313 316 318 314 314 302 299 303 306 307 308 317 326 332 334 335 337 340 336 331 326 325 319 312 298 273 259 250 242 239 237 235 235 232
307 291 273 262 259 257 270 285 293 296 299 305 311 318 315 319 314 309 306 306 309 319 327 334 336 336 337 341 345 341 340 334 330 331 328 316 295 269 252 242 238 234 234 235 234
313 299 276 263 254 258 262 266 286 293 296 300 307 313 318 315 320 313 311 308 309 319 327 335 334 337 340 345 348 345 345 341 336 335 337 324 311 283 255 242 235 234 234 233 233
319 306 292 270 255 255 261 260 270 288 290 293 303 307 316 315 315 318 311 309 309 319 324 331 339 340 342 348 350 349 348 348 345 340 337 334 326 301 267 245 233 228 228 228 229
320 310 295 276 258 256 261 266 266 268 284 288 301 303 308 312 308 311 311 307 305 314 325 331 341 342 344 349 352 352 350 353 354 349 342 341 337 322 302 264 245 233 223 223 223
318 311 300 281 259 252 261 268 274 271 277 282 294 299 301 307 304 308 310 303 304 310 324 331 339 346 347 351 353 351 351 356 358 357 355 349 343 338 314 298 264 237 223 215 213
321 310 300 288 262 253 258 264 270 270 275 282 288 293 298 300 300 302 306 300 300 306 320 331 337 346 349 353 352 350 352 357 359 358 359 356 352 345 328 320 276 246 221 211 210
327 309 300 288 270 254 256 260 268 267 275 279 280 288 295 294 297 296 300 303 296 301 313 325 333 343 349 352 353 353 358 3 3 2 2 359 358 353 345 331 255 242 220 204 201
334 310 300 293 280 264 258 262 263 267 272 274 279 282 290 292 290 287 297 297 291 294 304 319 329 338 347 355 358 358 2 10 12 9 5 3 1 2 358 350 268 221 195 193 193
337 316 300 290 283 274 261 260 262 260 265 271 272 278 284 287 284 279 283 290 287 281 291 309 323 331 343 354 2 5 7 19 21 19 16 12 9 6 12 14 20 179 168 184 188
333 321 303 291 282 276 263 259 262 264 268 270 275 279 281 278 278 279 276 277 287 283 285 296 313 323 333 347 2 10 16 26 32 30 26 26 22 17 25 32 65 121 144 163 170
326 320 302 285 276 274 268 265 262 262 264 267 272 275 274 274 273 275 272 271 274 277 277 284 297 312 322 335 352 8 22 27 34 39 38 37 35 32 45 59 70 99 120 137 154
Height
10725 10723 10721 10719 10716 10713 10710 10706 10703 10699 10696 10693 10690 10689 10688 10687 10685 10685 10683 10684 10685 10687 10689 10691 10692 10692 10695 10697 10698 10701 10705 10707 10709 10712 10718 10717 10722 10721 10724 10724 10728 10748 10762 10761 10759
10716 10714 10712 10710 10709 10706 10704 10701 10698 10695 10692 10689 10686 10684 10683 10683 10682 10681 10681 10681 10680 10680 10680 10680 10681 10680 10680 10681 10683 10685 10687 10687 10689 10692 10697 10701 10703 10706 10706 10710 10712 10727 10746 10752 10749
10708 10706 10704 10702 10700 10699 10696 10695 10692 10690 10687 10684 10682 10679 10677 10676 10675 10675 10675 10674 10674 10674 10673 10672 10671 10669 10668 10668 10670 10669 10668 10668 10670 10672 10676 10682 10686 10687 10691 10690 10699 10701 10724 10737 10738
10699 10698 10696 10694 10692 10690 10689 10688 10686 10683 10680 10678 10676 10673 10671 10670 10669 10667 10666 10666 10666 10666 10665 10664 10662 10659 10657 10655 10656 10655 10653 10654 10653 10654 10655 10661 10666 10670 10671 10674 10677 10685 10698 10714 10723
10690 10689 10687 10686 10684 10682 10680 10679 10678 10676 10673 10672 10669 10667 10664 10661 10661 10660 10658 10657 10656 10655 10654 10653 10651 10648 10646 10644 10640 10641 10638 10638 10637 10636 10641 10646 10653 10654 10659 10650 10658 10665 10673 10688 10705
10682 10679 10678 10677 10676 10674 10673 10671 10670 10668 10665 10664 10661 10659 10657 10654 10653 10652 10650 10648 10647 10645 10643 10640 10638 10634 10632 10629 10626 10624 10622 10618 10616 10619 10622 10629 10637 10639 10636 10624 10636 10648 10654 10665 10679
10675 10672 10669 10667 10665 10664 10663 10662 10661 10658 10657 10655 10653 10651 10649 10647 10645 10644 10641 10639 10638 10636 10634 10629 10625 10620 10617 10612 10609 10605 10603 10599 10593 10599 10598 10605 10617 10614 10604 10608 10616 10629 10640 10646 10656
10669 10666 10662 10659 10656 10654 10652 10651 10651 10649 10647 10645 10643 10643 10641 10639 10636 10634 10633 10630 10627 10625 10622 10618 10613 10608 10602 10596 10591 10586 10580 10573 10567 10575 10574 10576 10589 10581 10587 10592 10600 10603 10621 10631 10638
10662 10660 10656 10652 10649 10646 10643 10641 10640 10639 10636 10635 10633 10632 10631 10629 10626 10623 10622 10619 10616 10613 10609 10606 10600 10595 10589 10580 10572 10565 10559 10551 10543 10545 10547 10548 10560 10546 10557 10564 10578 10579 10590 10607 10617
10656 10653 10650 10646 10643 10639 10636 10633 10631 10630 10625 10623 10623 10620 10620 10619 10616 10612 10611 10608 10605 10599 10596 10591 10586 10577 10572 10562 10552 10544 10534 10526 10520 10509 10516 10516 10527 10520 10524 10533 10543 10557 10562 10582 10596
10647 10647 10644 10641 10637 10633 10629 10625 10623 10620 10617 10615 10612 10610 10608 10607 10605 10602 10600 10597 10593 10588 10583 10576 10570 10561 10553 10541 10528 10520 10508 10497 10486 10484 10484 10483 10489 10487 10491 10506 10510 10521 10532 10547 10572
10638 10637 10637 10635 10631 10628 10623 10619 10616 10613 10610 10607 10604 10600 10598 10596 10594 10591 10589 10586 10582 10576 10570 10564 10555 10546 10536 10522 10507 10497 10483 10473 10460 10458 10457 10450 10454 10456 10459 10472 10480 10490 10505 10519 10538
10627 10627 10626 10626 10625 10621 10618 10614 10610 10606 10602 10600 10596 10592 10589 10586 10584 10580 10579 10574 10570 10566 10559 10553 10543 10533 10521 10506 10490 10479 10465 10454 10445 10435 10436 10430 10427 10425 10430 10444 10458 10465 10478 10494 10509
10617 10615 10615 10615 10617 10615 10610 10608 10604 10601 10597 10592 10588 10585 10581 10577 10575 10571 10568 10565 10562 10557 10551 10543 10533 10520 10507 10493 10477 10463 10450 10441 10429 10420 10415 10416 10407 10413 10422 10427 10433 10442 10451 10464 10479
10606 10604 10602 10605 10604 10606 10603 10602 10598 10594 10592 10587 10581 10576 10574 10571 10567 10564 10561 10556 10554 10549 10544 10533 10524 10509 10495 10480 10465 10452 10440 10429 10419 10408 10403 10401 10398 10396 10398 10402 10407 10419 10430 10442 10455
10593 10592 10591 10592 10593 10593 10594 10593 10592 10588 10585 10581 10577 10571 10565 10563 10560 10558 10555 10550 10543 10539 10534 10523 10513 10500 10485 10473 10457 10443 10432 10421 10411 10402 10394 10389 10386 10385 10385 10388 10394 10402 10412 10421 10433
10582 10580 10580 10581 10583 10583 10582 10585 10584 10582 10579 10575 10572 10568 10561 10556 10552 10550 10547 10544 10538 10531 10523 10516 10504 10493 10481 10466 10452 10439 10425 10414 10404 10395 10387 10381 10378 10375 10375 10378 10383 10389 10397 10406 10418
10574 10569 10570 10571 10572 10573 10571 10573 10576 10575 10571 10569 10565 10563 10558 10551 10546 10543 10541 10539 10534 10528 10519 10514 10501 10491 10478 10463 10448 10435 10422 10410 10401 10392 10384 10377 10373 10371 10369 10370 10374 10378 10384 10394 10404
10565 10561 10560 10561 10561 10562 10562 10562 10563 10566 10563 10561 10559 10555 10552 10548 10542 10538 10534 10532 10529 10524 10516 10511 10502 10487 10474 10462 10448 10433 10419 10409 10397 10388 10382 10376 10370 10367 10365 10364 10365 10368 10376 10384 10392
10557 10552 10551 10552 10551 10552 10552 10550 10554 10555 10554 10552 10551 10549 10546 10542 10538 10533 10531 10527 10523 10520 10513 10504 10498 10485 10470 10457 10445 10432 10420 10407 10396 10388 10379 10373 10369 10365 10361 10361 10361 10363 10368 10374 10382
10549 10542 10540 10540 10539 10541 10542 10540 10543 10545 10546 10543 10542 10542 10540 10536 10533 10528 10525 10522 10518 10515 10511 10502 10492 10483 10470 10457 10443 10430 10418 10405 10395 10387 10379 10371 10367 10363 10357 10356 10356 10359 10362 10366 10371
10543 10534 10530 10529 10530 10530 10532 10532 10533 10532 10536 10535 10534 10533 10532 10530 10526 10523 10518 10516 10513 10510 10506 10500 10491 10482 10470 10457 10446 10434 10421 10408 10398 10388 10378 10371 10366 10360 10355 10353 10353 10355 10359 10363 10367
10537 10526 10521 10520 10520 10520 10521 10522 10522 10520 10521 10525 10524 10523 10523 10521 10520 10516 10514 10510 10508 10506 10503 10499 10495 10487 10474 10462 10451 10439 10427 10413 10400 10389 10379 10372 10364 10358 10354 10352 10351 10352 10356 10361 10365
10527 10517 10511 10509 10509 10510 10511 10511 10511 10509 10510 10514 10513 10513 10513 10511 10514 10510 10508 10504 10502 10501 10499 10494 10490 10484 10476 10465 10454 10441 10429 10416 10404 10393 10382 10373 10365 10360 10355 10352 10350 10351 10354 10358 10362
10518 10509 10501 10499 10498 10499 10500 10499 10497 10498 10500 10500 10501 10502 10505 10500 10502 10502 10500 10499 10496 10495 10494 10491 10487 10483 10478 10468 10457 10447 10434 10422 10411 10400 10387 10377 10369 10363 10357 10353 10352 10352 10354 10357 10362
10510 10500 10494 10487 10485 10487 10489 10486 10486 10487 10489 10487 10489 10490 10492 10490 10492 10492 10493 10492 10488 10487 10487 10486 10484 10481 10477 10470 10460 10451 10441 10430 10419 10408 10395 10383 10374 10368 10361 10356 10355 10355 10357 10359 10364
10489 10486 10482 10478 10474 10474 10475 10476 10474 10474 10478 10476 10477 10477 10479 10479 10483 10483 10483 10482 10484 10482 10482 10481 10480 10478 10476 10471 10464 10455 10446 10437 10428 10418 10406 10394 10384 10377 10368 10362 10361 10361 10362 10364 10368